DW8353 Weather Reports


time (UTC)temp
C
wind
direction
speed
KPH
gust
KPH
rain 1hr
cm
rain 24hr
cm
rain mn
cm
humidity
%
barometer
mb
20260502123006 8 61 0.0 0.0 0.00 0.00 0.00 97 1011.1
20260502121504 7 50 0.0 0.0 0.00 0.00 0.00 97 1011.1
20260502114600 6 52 0.0 0.0 0.00 0.00 0.00 97 1011.2
20260502113100 6 52 0.0 0.0 0.00 0.00 0.00 97 1011.1
20260502111557 6 52 0.0 0.0 0.00 0.00 0.00 96 1011.1
20260502110055 6 344 0.0 0.0 0.00 0.00 0.00 96 1011.1
20260502104554 6 344 0.0 0.0 0.00 0.00 0.00 96 1011.3
20260502103051 6 344 0.0 0.0 0.00 0.00 0.00 96 1011.2
20260502101556 6 344 0.0 0.0 0.00 0.00 0.00 96 1011.0
20260502070036 7 298 0.0 0.0 0.00 0.00 0.00 93 1010.5
20260502064535 7 298 0.0 0.0 0.00 0.00 0.00 92 1010.9
20260502063044 7 298 0.0 0.0 0.00 0.00 0.00 91 1010.9
20260502061531 7 298 0.0 0.0 0.00 0.00 0.00 90 1010.8
20260502060030 7 216 0.0 0.0 0.00 0.00 0.00 90 1011.0
20260502054528 7 217 0.0 0.0 0.00 0.00 0.00 90 1010.8
20260502053027 7 217 0.0 0.0 0.00 0.00 0.00 89 1010.7
20260502051625 7 217 0.0 0.0 0.00 0.00 0.00 87 1010.8
20260502050034 8 217 0.0 0.0 0.00 0.00 0.00 86 1011.1
20260502044521 8 217 0.0 0.0 0.00 0.00 0.00 85 1011.3
20260502043018 8 217 0.0 0.0 0.00 0.00 0.00 82 1011.4
20260502041524 8 216 0.0 0.0 0.00 0.00 0.00 78 1011.2
20260502040014 8 216 0.0 0.0 0.00 0.00 0.00 78 1011.0
20260502034514 8 216 0.0 0.0 0.00 0.00 0.00 78 1011.0
20260502033017 8 216 0.0 0.0 0.00 0.00 0.00 77 1011.1
20260502031512 8 290 0.0 0.0 0.00 0.00 0.00 76 1011.1
20260502030022 8 290 0.0 0.0 0.00 0.00 0.00 76 1011.2
20260502024510 8 290 0.0 0.0 0.00 0.00 0.00 72 1011.4
20260502023009 9 290 0.0 0.0 0.00 0.00 0.00 66 1011.2
20260502021509 10 290 0.0 0.0 0.00 0.00 0.00 64 1011.3
20260502020009 10 290 0.0 0.0 0.00 0.00 0.00 61 1011.3
20260502014507 11 290 0.0 8.0 0.00 0.00 0.00 55 1011.3
20260502013007 11 355 3.2 9.7 0.00 0.00 0.00 53 1011.0
20260502011513 12 306 0.0 8.0 0.00 0.00 0.00 53 1010.8
20260502010010 12 339 0.0 14.5 0.00 0.00 0.00 51 1010.6
20260502004515 12 323 6.4 11.3 0.00 0.00 0.00 53 1010.5
20260502003004 11 267 0.0 0.0 0.00 0.00 0.00 58 1010.4
20260502001504 11 266 0.0 0.0 0.00 0.00 0.00 56 1010.2
20260502000003 11 266 0.0 0.0 0.00 0.00 0.00 56 1010.0
20260501234502 12 266 0.0 0.0 0.00 0.00 0.00 53 1009.8
20260501233002 12 266 0.0 0.0 0.00 0.00 0.00 51 1009.6
20260501231600 13 246 0.0 9.7 0.00 0.00 0.00 49 1009.5
20260501230100 13 269 0.0 0.0 0.00 0.00 0.00 47 1009.3
20260501224601 13 261 0.0 0.0 0.00 0.00 0.00 47 1009.2
20260501223106 13 267 0.0 0.0 0.00 0.00 0.00 46 1009.2
20260501221600 14 294 0.0 12.9 0.00 0.00 0.00 43 1009.3
20260501220104 15 216 0.0 6.4 0.00 0.00 0.00 45 1009.2
20260501214556 14 317 0.0 11.3 0.00 0.00 0.00 42 1009.1
20260501213056 14 311 0.0 0.0 0.00 0.00 0.00 44 1009.3
20260501211603 13 315 1.6 17.7 0.00 0.00 0.00 43 1009.4
20260501210058 13 294 0.0 17.7 0.00 0.00 0.00 47 1009.4
20260501204555 14 317 6.4 17.7 0.00 0.00 0.00 43 1009.3
20260501203052 15 9 0.0 16.1 0.00 0.00 0.00 44 1009.2
20260501201551 13 259 0.0 14.5 0.00 0.00 0.00 44 1009.4
20260501200054 15 325 4.8 16.1 0.00 0.00 0.00 50 1009.2
20260501194554 13 323 6.4 17.7 0.00 0.00 0.00 43 1009.6
20260501193101 15 300 6.4 20.9 0.00 0.00 0.00 45 1009.6
20260501191548 14 233 6.4 22.5 0.00 0.00 0.00 48 1009.6
20260501190118 15 241 4.8 14.5 0.00 0.00 0.00 44 1009.7
20260501184600 15 217 9.7 24.1 0.00 0.00 0.00 47 1010.1
20260501183047 14 290 4.8 17.7 0.00 0.00 0.00 45 1010.2
20260501181546 14 288 6.4 20.9 0.00 0.00 0.00 46 1010.2
20260501180052 13 309 6.4 25.7 0.00 0.00 0.00 51 1010.2
20260501174546 13 280 1.6 22.5 0.00 0.00 0.00 49 1010.4
20260501173042 13 294 4.8 19.3 0.00 0.00 0.00 56 1010.4
20260501171540 13 311 14.5 27.4 0.00 0.00 0.00 46 1010.6
20260501170049 13 209 4.8 25.7 0.00 0.00 0.00 52 1010.6
20260501164538 12 9 4.8 22.5 0.00 0.00 0.00 50 1010.6
20260501163036 12 336 3.2 17.7 0.00 0.00 0.00 53 1010.8
20260501161538 12 287 11.3 27.4 0.00 0.00 0.00 50 1010.9
20260501160035 12 9 6.4 19.3 0.00 0.00 0.00 52 1010.9
20260501154529 11 348 6.4 17.7 0.00 0.00 0.00 53 1011.1
20260501153028 11 329 4.8 19.3 0.00 0.00 0.00 54 1011.2
20260501151529 11 5 9.7 20.9 0.00 0.00 0.00 56 1011.3
20260501150038 11 5 8.0 17.7 0.00 0.00 0.00 57 1011.3
20260501144518 10 355 12.9 22.5 0.00 0.00 0.00 56 1011.3
20260501143016 10 355 8.0 22.5 0.00 0.00 0.00 58 1011.2